PBO Station Position Time Series. Reference Frame : NAM14
Format Version,1.1.0
4-character ID,P154
Station name,IshkeshRchCN2007
Begin Date, 2007-05-11
End Date, 2019-10-07
Release Date, 2019-10-08
Reference position, 41.8070827735 North Latitude, -123.3600507124 East Longitude, 319.89265 meters elevation,
Date, North (mm), East (mm), Vertical (mm), North Std. Deviation (mm), East Std. Deviation (mm),              Vertical Std. Deviation (mm), Quality,
2007-05-11,0.00, 0.00, 0.00, 2.16, 1.62, 7.53, repro,
2007-05-12,-1.11, -0.31, 2.88, 2.08, 1.55, 7.13, repro,
2007-05-13,-1.04, -0.02, -4.81, 2.14, 1.60, 7.36, repro,
2007-05-14,0.04, -0.40, -8.70, 2.12, 1.57, 7.23, repro,
2007-05-15,0.18, 1.42, -4.44, 2.11, 1.55, 7.19, repro,
2007-05-16,0.45, 1.27, -6.35, 2.10, 1.58, 7.26, repro,
2007-05-17,-0.81, -1.34, 0.58, 2.12, 1.59, 7.35, repro,
2007-05-18,-2.60, -0.95, 0.57, 2.17, 1.63, 7.50, repro,
2007-05-19,-1.76, -0.34, 4.39, 2.13, 1.60, 7.29, repro,
2007-05-20,-2.01, -0.58, -3.25, 2.18, 1.62, 7.40, repro,
2007-05-21,-1.07, -1.80, 5.72, 2.13, 1.59, 7.29, repro,
2007-05-22,-0.77, 1.20, -1.48, 2.12, 1.60, 7.34, repro,
2007-05-23,-0.94, -1.67, 5.43, 2.15, 1.59, 7.33, repro,
2007-05-24,-1.37, -0.99, 1.94, 2.18, 1.62, 7.44, repro,
2007-05-25,-1.35, 0.09, -5.57, 2.10, 1.55, 7.13, repro,
2007-05-26,-3.35, 0.18, -1.89, 2.12, 1.57, 7.19, repro,
2007-05-27,-2.53, -0.93, 7.22, 2.14, 1.59, 7.29, repro,
2007-05-28,-1.16, 0.08, 4.03, 2.11, 1.56, 7.24, repro,
2007-05-29,-1.64, 0.55, 0.62, 2.17, 1.63, 7.55, repro,
2007-05-30,-0.53, 0.50, -6.99, 2.18, 1.60, 7.39, repro,
2007-05-31,-1.52, -1.15, -6.57, 2.15, 1.61, 7.35, repro,
2007-06-01,-2.42, -0.18, -8.55, 2.21, 1.69, 7.68, repro,
2007-06-02,-2.48, 0.57, -2.69, 2.18, 1.63, 7.50, repro,
2007-06-03,-2.13, -3.11, -7.81, 2.20, 1.66, 7.51, repro,
2007-06-04,-2.07, 0.03, -11.55, 2.10, 1.57, 7.24, repro,
2007-06-05,-1.50, -1.34, 11.81, 2.13, 1.57, 7.29, repro,
2007-06-06,-0.50, -0.31, 4.00, 2.08, 1.54, 7.07, repro,
2007-06-07,-0.43, 0.13, 2.68, 2.11, 1.57, 7.25, repro,
2007-06-08,0.02, -0.47, -3.30, 2.09, 1.55, 7.11, repro,
2007-06-09,-0.92, -0.43, 2.67, 2.08, 1.56, 7.09, repro,
2007-06-10,-2.46, 2.86, -0.54, 2.07, 1.56, 7.09, repro,
2007-06-11,0.03, -0.35, -7.44, 2.09, 1.59, 7.20, repro,
2007-06-12,-1.10, 0.63, -3.22, 2.10, 1.60, 7.25, repro,
2007-06-13,0.94, 0.60, -16.50, 2.11, 1.57, 7.21, repro,
2007-06-14,0.07, -0.03, -8.35, 2.15, 1.61, 7.34, repro,
2007-06-15,0.69, -0.35, -3.67, 2.08, 1.56, 7.13, repro,
2007-06-16,0.11, -0.12, -3.32, 2.08, 1.55, 7.09, repro,
2007-06-17,-0.37, 0.38, -3.53, 2.09, 1.57, 7.17, repro,
2007-06-18,0.51, -1.02, 1.76, 2.08, 1.56, 7.15, repro,
2007-06-19,2.09, -1.17, -7.36, 2.10, 1.56, 7.20, repro,
2007-06-20,0.24, -1.81, -14.31, 2.12, 1.57, 7.20, repro,
2007-06-21,-0.10, -1.17, -1.99, 2.08, 1.54, 7.07, repro,
2007-06-22,-1.72, 2.39, -10.52, 2.12, 1.58, 7.20, repro,
2007-06-23,-0.34, 2.33, -0.27, 2.14, 1.59, 7.29, repro,
2007-06-24,0.98, 1.14, -8.18, 2.12, 1.60, 7.32, repro,
2007-06-25,0.24, 0.85, -1.17, 2.11, 1.56, 7.20, repro,
2007-06-26,-0.22, 0.65, -9.62, 2.14, 1.59, 7.27, repro,
2007-06-27,0.19, -1.76, -14.92, 2.10, 1.56, 7.13, repro,
2007-06-28,-1.94, -4.12, 5.42, 2.14, 1.59, 7.30, repro,
2007-06-29,-2.38, 1.99, -2.69, 2.14, 1.63, 7.44, repro,
2007-06-30,-0.21, 0.81, -9.02, 2.10, 1.57, 7.24, repro,
2007-07-01,0.01, -0.49, 0.78, 2.10, 1.57, 7.24, repro,
2007-07-02,-0.19, 2.03, 5.60, 2.10, 1.56, 7.21, repro,
2007-07-03,1.09, 1.44, -10.63, 2.07, 1.56, 7.13, repro,
2007-07-04,-0.10, 1.60, -1.73, 2.08, 1.57, 7.17, repro,
2007-07-05,1.85, -0.78, -8.14, 2.12, 1.62, 7.34, repro,
2007-07-06,1.78, 0.63, -0.79, 2.10, 1.57, 7.25, repro,
2007-07-07,0.44, 0.42, -1.51, 2.11, 1.57, 7.22, repro,
2007-07-08,-3.89, 1.45, 11.27, 2.20, 1.66, 7.53, repro,
2007-07-09,0.10, -0.26, -7.56, 2.08, 1.57, 7.16, repro,
2007-07-10,-0.28, 1.60, -3.93, 2.09, 1.57, 7.17, repro,
2007-07-11,0.93, 2.87, -4.01, 2.09, 1.57, 7.20, repro,
2007-07-12,-0.34, 1.04, 0.04, 2.11, 1.56, 7.17, repro,
2007-07-13,-1.68, -0.11, -6.29, 2.15, 1.62, 7.41, repro,
2007-07-14,-1.99, -0.34, -5.20, 2.10, 1.62, 7.31, repro,
2007-07-15,-0.72, 0.06, 8.83, 2.09, 1.58, 7.21, repro,
2007-07-16,-0.82, 1.14, 3.03, 2.10, 1.57, 7.19, repro,
2007-07-17,0.06, -0.57, 1.69, 2.09, 1.56, 7.16, repro,
2007-07-18,1.08, -1.15, 2.95, 2.12, 1.57, 7.29, repro,
2007-07-19,-0.46, -0.05, -2.10, 2.09, 1.56, 7.10, repro,
2007-07-20,-0.41, 2.93, -8.67, 2.08, 1.56, 7.14, repro,
2007-07-21,0.12, -0.00, 7.54, 2.14, 1.63, 7.44, repro,
2007-07-22,2.29, 2.65, -1.00, 2.13, 1.58, 7.28, repro,
2007-07-23,-0.67, 0.27, 8.13, 2.14, 1.62, 7.44, repro,
2007-07-24,-1.16, 0.63, 3.80, 2.13, 1.57, 7.22, repro,
2007-07-25,-1.15, -1.12, 1.11, 2.17, 1.69, 7.55, repro,
2007-07-26,-0.82, 1.08, -0.93, 2.09, 1.56, 7.15, repro,
2007-07-27,-0.42, 0.56, 0.17, 2.17, 1.64, 7.52, repro,
2007-07-28,-1.45, -0.01, 3.31, 2.14, 1.62, 7.36, repro,
2007-07-29,-1.08, -0.76, 4.55, 2.10, 1.57, 7.20, repro,
2007-07-30,-0.29, -0.89, 4.24, 2.10, 1.57, 7.18, repro,
2007-07-31,-2.65, -2.12, 10.28, 2.07, 1.56, 7.15, repro,
2007-08-01,-0.90, -0.85, 10.30, 2.10, 1.58, 7.25, repro,
2007-08-02,-0.93, -1.03, 10.50, 2.14, 1.57, 7.28, repro,
2007-08-03,-1.45, 1.59, 8.76, 2.10, 1.57, 7.18, repro,
2007-08-04,0.53, -0.03, 12.42, 2.12, 1.61, 7.30, repro,
2007-08-05,0.47, -3.41, 13.46, 2.17, 1.62, 7.34, repro,
2007-08-06,0.32, -0.98, 7.50, 2.18, 1.66, 7.57, repro,
2007-08-07,0.29, -0.60, 5.09, 2.17, 1.63, 7.42, repro,
2007-08-08,-0.57, 1.94, 7.26, 2.09, 1.57, 7.19, repro,
2007-08-09,-3.44, 1.08, 7.13, 2.20, 1.65, 7.61, repro,
2007-08-10,-0.87, 0.64, 12.90, 2.08, 1.56, 7.12, repro,
2007-08-11,-0.51, -3.32, 4.47, 2.07, 1.55, 7.07, repro,
2007-08-12,-0.35, -2.54, 1.34, 2.09, 1.57, 7.20, repro,
2007-08-13,-2.99, -0.50, 5.98, 2.13, 1.56, 7.24, repro,
2007-08-14,-0.59, 1.00, 5.66, 2.26, 1.74, 7.81, repro,
2007-08-15,-0.80, -1.58, 12.83, 2.20, 1.67, 7.49, repro,
2007-08-16,-0.13, -4.38, 7.56, 2.18, 1.64, 7.45, repro,
2007-08-17,-1.85, -0.66, 2.56, 2.17, 1.63, 7.37, repro,
2007-08-18,-0.75, -1.17, -0.32, 2.24, 1.68, 7.81, repro,
2007-08-19,-5.06, -0.12, 0.85, 2.24, 1.67, 7.70, repro,
2007-08-20,-2.67, -1.80, 8.36, 2.20, 1.62, 7.50, repro,
2007-08-21,0.04, -0.66, 10.22, 2.18, 1.65, 7.56, repro,
2007-08-22,-0.10, -1.66, 15.18, 2.18, 1.61, 7.39, repro,
2007-08-23,-3.67, -0.45, 11.50, 2.14, 1.57, 7.23, repro,
2007-08-24,-3.00, 0.09, 16.12, 2.26, 1.67, 7.75, repro,
2007-08-25,-0.62, -0.38, 8.40, 2.19, 1.64, 7.54, repro,
2007-08-26,-2.32, -0.64, 10.47, 2.21, 1.66, 7.59, repro,
2007-08-27,-1.19, -1.10, 4.88, 2.20, 1.67, 7.57, repro,
2007-08-28,-1.71, -2.53, 10.99, 2.17, 1.64, 7.46, repro,
2007-08-29,-0.42, -1.05, 13.05, 2.21, 1.64, 7.59, repro,
2007-08-30,-1.09, -0.87, 8.87, 2.19, 1.65, 7.59, repro,
2007-08-31,-2.26, -4.26, 21.31, 2.20, 1.63, 7.55, repro,
2007-09-01,-1.53, -1.03, 1.18, 2.18, 1.64, 7.50, repro,
2007-09-02,-1.91, -3.24, 10.19, 2.17, 1.63, 7.42, repro,
2007-09-03,-3.04, -0.87, 12.42, 2.20, 1.65, 7.58, repro,
2007-09-04,-0.65, -0.97, 2.64, 2.20, 1.63, 7.49, repro,
2007-09-05,-1.64, -0.75, 15.12, 2.19, 1.63, 7.50, repro,
2007-09-06,0.25, -3.13, 17.28, 2.18, 1.62, 7.40, repro,
2007-09-07,-1.85, -3.02, 8.04, 2.17, 1.62, 7.43, repro,
2007-09-08,-1.50, -1.96, 10.64, 2.21, 1.67, 7.64, repro,
2007-09-09,-2.35, -2.29, 12.01, 2.35, 1.76, 8.16, repro,
2007-09-10,-2.82, -2.37, 6.99, 2.19, 1.64, 7.48, repro,
2007-09-11,-1.95, -1.67, 3.86, 2.21, 1.65, 7.54, repro,
2007-09-12,-1.81, -1.56, 7.82, 2.23, 1.68, 7.72, repro,
2007-09-13,-3.05, -1.36, 8.70, 2.20, 1.64, 7.49, repro,
2007-09-14,-1.98, -2.28, 9.60, 2.25, 1.69, 7.78, repro,
2007-09-15,-2.94, -1.96, 12.75, 2.27, 1.66, 7.74, repro,
2007-09-16,-0.78, -2.72, 13.59, 2.18, 1.63, 7.42, repro,
2007-09-17,-4.22, -1.14, 10.74, 2.21, 1.69, 7.69, repro,
2007-09-18,-1.42, -1.13, 5.93, 2.13, 1.63, 7.39, repro,
2007-09-19,-0.79, -1.61, 6.13, 2.12, 1.59, 7.33, repro,
2007-09-20,-0.27, -2.22, 6.85, 2.12, 1.59, 7.26, repro,
2007-09-21,-3.08, -0.72, 18.58, 2.20, 1.62, 7.52, repro,
2007-09-22,-3.16, -0.23, 14.03, 2.13, 1.58, 7.20, repro,
2007-09-23,-2.92, -0.37, 13.21, 2.14, 1.59, 7.28, repro,
2007-09-24,-2.87, -0.02, 8.77, 2.23, 1.64, 7.58, repro,
2007-09-25,-3.01, -0.92, 6.15, 2.19, 1.60, 7.51, repro,
2007-09-26,-2.89, -0.92, 15.19, 2.22, 1.58, 7.38, repro,
2007-09-27,-3.27, -1.71, 11.36, 2.17, 1.60, 7.41, repro,
2007-09-28,-3.38, -1.93, 19.83, 2.12, 1.60, 7.30, repro,
2007-09-29,-0.70, -2.01, 9.17, 2.12, 1.60, 7.29, repro,
2007-09-30,-2.72, -2.29, 7.21, 2.13, 1.62, 7.43, repro,
2007-10-01,-0.75, -0.52, 13.36, 2.23, 1.73, 7.72, repro,
2007-10-02,-3.44, -0.50, 11.06, 2.24, 1.71, 7.82, repro,
2007-10-03,-2.41, 0.18, 16.32, 2.18, 1.63, 7.50, repro,
2007-10-04,-3.17, -0.08, 21.17, 2.25, 1.65, 7.72, repro,
2007-10-05,-1.80, -1.61, 13.11, 2.20, 1.72, 7.79, repro,
2007-10-06,-1.80, -0.54, 9.52, 2.17, 1.66, 7.52, repro,
2007-10-07,-1.46, -0.33, 4.98, 2.23, 1.68, 7.61, repro,
2007-10-08,-2.50, 0.06, 7.24, 2.49, 1.78, 8.42, repro,
2007-10-09,-2.24, -0.45, 13.90, 2.37, 1.83, 8.27, repro,
2007-10-10,-1.78, -2.15, 5.13, 2.35, 1.71, 7.98, repro,
2007-10-11,-1.42, -0.61, 6.42, 2.17, 1.66, 7.50, repro,
2007-10-12,-2.39, -0.24, 17.79, 2.16, 1.65, 7.46, repro,
2007-10-13,-1.66, -0.04, 12.72, 2.14, 1.61, 7.39, repro,
2007-10-14,-1.47, -1.33, 15.74, 2.10, 1.60, 7.26, repro,
2007-10-15,-2.96, -0.74, 10.63, 2.12, 1.60, 7.30, repro,
2007-10-16,-4.52, -0.55, 17.21, 2.12, 1.62, 7.39, repro,
2007-10-17,-2.95, -0.41, 13.79, 2.11, 1.60, 7.34, repro,
2007-10-18,-3.06, -4.39, 9.56, 2.13, 1.61, 7.43, repro,
2007-10-19,-7.03, -3.15, 11.86, 2.13, 1.59, 7.31, repro,
2007-10-20,-3.05, -1.77, 18.88, 2.08, 1.55, 7.11, repro,
2007-10-21,-2.79, -0.94, 5.39, 2.11, 1.60, 7.33, repro,
2007-10-22,-3.70, 0.42, 1.82, 2.11, 1.59, 7.34, repro,
2007-10-23,-2.34, 0.23, 3.92, 2.18, 1.65, 7.52, repro,
2007-10-24,-3.77, 0.54, 3.88, 2.23, 1.70, 7.74, repro,
2007-10-25,-2.84, -0.76, 4.13, 2.14, 1.60, 7.37, repro,
2007-10-26,-2.32, -0.02, 16.08, 2.13, 1.65, 7.43, repro,
2007-10-27,-3.06, -1.40, 7.50, 2.12, 1.60, 7.36, repro,
2007-10-28,-1.86, -0.16, 5.43, 2.12, 1.61, 7.38, repro,
2007-10-29,-1.71, -1.07, 4.79, 2.14, 1.61, 7.41, repro,
2007-10-30,-1.41, -0.18, -1.34, 2.13, 1.60, 7.32, repro,
2007-10-31,-2.47, -0.04, 3.07, 2.12, 1.60, 7.31, repro,
2007-11-01,-1.22, -0.12, 6.01, 2.07, 1.57, 7.15, repro,
2007-11-02,-3.20, -1.02, 11.82, 2.07, 1.57, 7.15, repro,
2007-11-03,-2.02, -0.23, 3.51, 2.08, 1.58, 7.17, repro,
2007-11-04,-2.04, -0.83, 3.93, 2.09, 1.58, 7.18, repro,
2007-11-05,-2.02, -0.29, -0.76, 2.08, 1.57, 7.10, repro,
2007-11-06,-2.22, -0.80, 3.56, 2.13, 1.65, 7.48, repro,
2007-11-07,-1.81, -0.67, 3.60, 2.06, 1.56, 7.11, repro,
2007-11-08,-2.28, -0.99, 6.20, 2.13, 1.61, 7.28, repro,
2007-11-09,-1.59, -1.67, 4.41, 2.13, 1.61, 7.33, repro,
2007-11-10,-3.45, -1.35, 1.99, 2.09, 1.58, 7.19, repro,
2007-11-11,-2.30, -2.99, 4.28, 2.11, 1.57, 7.24, repro,
2007-11-12,-5.01, -1.00, 2.47, 2.12, 1.56, 7.27, repro,
2007-11-13,-3.35, -2.99, 4.13, 2.10, 1.57, 7.28, repro,
2007-11-14,-2.28, -1.32, 4.57, 2.09, 1.58, 7.25, repro,
2007-11-15,-2.92, 0.12, 7.29, 2.11, 1.61, 7.33, repro,
2007-11-16,-3.48, 0.27, -3.24, 2.10, 1.58, 7.27, repro,
2007-11-17,-6.87, -7.98, 3.23, 2.07, 1.56, 7.12, repro,
2007-11-18,-3.97, -3.52, 1.87, 2.10, 1.58, 7.19, repro,
2007-11-19,-1.01, -1.48, -2.81, 2.15, 1.69, 7.70, repro,
2007-11-20,-1.54, -2.54, -5.10, 2.09, 1.62, 7.30, repro,
2007-11-21,-1.09, -0.90, -1.88, 2.10, 1.63, 7.37, repro,
2007-11-22,-0.83, -1.20, -1.77, 2.04, 1.57, 7.07, repro,
2007-11-23,-1.46, -1.60, 0.95, 2.10, 1.65, 7.37, repro,
2007-11-24,-0.75, -1.97, 0.14, 2.08, 1.60, 7.20, repro,
2007-11-25,-0.87, -2.68, 1.70, 2.11, 1.62, 7.29, repro,
2007-11-26,-1.25, -1.09, -3.63, 2.18, 1.71, 7.57, repro,
2007-11-27,-0.23, -1.01, -3.48, 2.18, 1.69, 7.57, repro,
2007-11-28,-0.52, -1.52, -4.51, 2.13, 1.62, 7.32, repro,
2007-11-29,0.14, -2.80, -2.88, 2.12, 1.64, 7.39, repro,
2007-11-30,-1.07, -2.75, -0.94, 2.15, 1.67, 7.40, repro,
2007-12-01,-1.20, -2.11, 9.46, 2.16, 1.72, 7.73, repro,
2007-12-02,-1.40, -3.52, 4.31, 2.18, 1.67, 7.62, repro,
2007-12-03,1.46, -3.87, 3.81, 2.26, 1.75, 8.04, repro,
2007-12-04,-4.56, 0.03, 2.52, 2.18, 1.71, 7.76, repro,
2007-12-05,-1.84, -0.32, 6.02, 2.17, 1.75, 7.78, repro,
2007-12-06,-1.87, -1.55, 11.03, 2.34, 1.94, 8.56, repro,
2007-12-07,-0.40, -1.57, -1.93, 2.22, 1.78, 7.89, repro,
2007-12-08,1.54, -0.33, -0.40, 2.11, 1.67, 7.47, repro,
2007-12-09,-0.09, -0.67, 4.64, 2.27, 1.88, 8.36, repro,
2007-12-10,-2.00, -0.93, -0.47, 2.16, 1.72, 7.55, repro,
2007-12-11,-2.74, -0.19, -0.61, 2.19, 1.69, 7.55, repro,
2007-12-12,-1.59, -2.05, -0.74, 2.14, 1.64, 7.45, repro,
2007-12-13,-1.08, -0.68, -10.15, 2.15, 1.66, 7.60, repro,
2007-12-14,0.42, -1.31, 0.24, 2.14, 1.60, 7.41, repro,
2007-12-15,0.26, -1.25, 7.26, 2.15, 1.60, 7.39, repro,
2007-12-16,-0.44, -2.05, -0.86, 2.20, 1.66, 7.52, repro,
2007-12-17,-2.85, -2.98, 6.72, 2.18, 1.63, 7.38, repro,
2007-12-18,-2.89, -2.53, 4.51, 2.11, 1.59, 7.26, repro,
2007-12-19,-4.01, -1.48, 5.43, 2.12, 1.63, 7.36, repro,
2007-12-20,-2.04, -3.37, -15.85, 2.14, 1.60, 7.40, repro,
2007-12-21,-1.19, -1.07, -7.95, 2.20, 1.68, 7.62, repro,
2007-12-22,-2.37, -2.24, -4.10, 2.16, 1.65, 7.50, repro,
2007-12-23,-2.24, 0.40, 3.64, 2.16, 1.67, 7.48, repro,
2007-12-24,-4.59, -2.87, 2.04, 2.13, 1.62, 7.38, repro,
2007-12-25,-1.50, -0.20, -4.19, 2.13, 1.60, 7.37, repro,
2007-12-26,-1.94, 0.70, 0.92, 2.15, 1.62, 7.40, repro,
2007-12-27,-1.80, 0.01, 1.81, 2.26, 1.70, 7.77, repro,
2007-12-28,-0.89, -0.50, -0.76, 2.18, 1.65, 7.57, repro,
2007-12-29,-0.00, 0.60, 3.64, 2.15, 1.60, 7.38, repro,
2007-12-30,1.01, 0.27, -0.19, 2.17, 1.61, 7.48, repro,
2007-12-31,0.62, -0.95, -4.59, 2.12, 1.58, 7.27, repro,
2008-01-01,-0.55, -0.49, -6.24, 2.14, 1.58, 7.30, repro,
2008-01-02,1.54, -1.49, -3.62, 2.13, 1.57, 7.23, repro,
2008-01-03,-1.92, 0.40, 5.66, 2.10, 1.54, 7.14, repro,
2008-01-04,-0.28, -1.07, 4.46, 2.11, 1.55, 7.23, repro,
2008-01-05,-2.75, -1.62, -6.57, 2.10, 1.56, 7.23, repro,
2008-01-06,-3.44, -3.68, 1.83, 2.12, 1.56, 7.28, repro,
2008-01-07,-3.17, -2.65, -6.16, 2.11, 1.56, 7.25, repro,
2008-01-08,-3.48, -1.72, 1.04, 2.18, 1.58, 7.40, repro,
2008-01-09,-1.29, -0.26, -7.04, 2.16, 1.57, 7.43, repro,
2008-01-10,-3.59, -0.69, -14.91, 2.15, 1.62, 7.37, repro,
2008-01-11,-2.59, -1.53, -1.52, 2.09, 1.57, 7.24, repro,
2008-01-12,-2.73, 0.46, -5.02, 2.15, 1.63, 7.32, repro,
2008-01-13,-2.63, 0.06, -7.21, 2.10, 1.55, 7.12, repro,
2008-01-14,-1.27, 1.28, -7.34, 2.09, 1.55, 7.18, repro,
2008-01-15,-1.95, 1.80, -6.37, 2.09, 1.57, 7.21, repro,
2008-01-16,-1.18, 2.02, -7.70, 2.11, 1.57, 7.26, repro,
2008-01-17,-1.14, 0.76, 1.30, 2.12, 1.58, 7.26, repro,
2008-01-18,-1.28, -0.06, -2.04, 2.09, 1.59, 7.23, repro,
2008-01-19,-0.99, 0.44, -6.73, 2.09, 1.55, 7.12, repro,
2008-01-20,-0.91, 0.73, -8.84, 2.08, 1.55, 7.13, repro,
2008-01-21,-1.85, 0.25, -5.12, 2.08, 1.56, 7.19, repro,
2008-01-22,-1.24, 0.25, -0.02, 2.06, 1.56, 7.11, repro,
2008-01-23,-1.97, -0.27, 0.79, 2.08, 1.56, 7.17, repro,
2008-01-24,-2.24, 0.66, 0.81, 2.07, 1.54, 7.10, repro,
2008-01-25,-1.73, 0.11, 2.02, 2.06, 1.54, 7.05, repro,
2008-01-26,-1.80, 0.93, 0.14, 2.07, 1.55, 7.11, repro,
2008-01-27,-2.94, 0.26, 3.03, 2.08, 1.56, 7.17, repro,
2008-01-28,-2.74, 0.25, 6.51, 2.08, 1.56, 7.13, repro,
2008-01-29,-3.15, -0.04, -4.28, 2.17, 1.66, 7.45, repro,
2008-01-30,-0.94, 1.51, -8.49, 2.22, 1.66, 7.64, repro,
2008-01-31,-1.04, -6.39, -18.98, 2.10, 1.58, 7.29, repro,
2008-02-01,-2.16, -0.49, -9.24, 2.10, 1.57, 7.26, repro,
2008-02-02,-2.31, -1.53, -9.87, 2.06, 1.56, 7.14, repro,
2008-02-03,-3.41, -0.13, -5.53, 2.06, 1.56, 7.11, repro,
2008-02-04,-3.33, 0.87, -10.74, 2.06, 1.55, 7.12, repro,
2008-02-05,-0.96, 2.41, -13.78, 2.10, 1.62, 7.30, repro,
2008-02-06,-0.69, 0.54, -3.84, 2.15, 1.67, 7.44, repro,
2008-02-07,1.32, 0.59, -8.69, 2.11, 1.60, 7.37, repro,
2008-02-08,-3.16, 1.31, -4.08, 2.05, 1.56, 7.10, repro,
2008-02-09,-1.87, 1.87, -9.95, 2.06, 1.55, 7.09, repro,
2008-02-10,-1.31, 1.97, -10.80, 2.07, 1.55, 7.10, repro,
2008-02-11,-1.05, 1.69, -7.87, 2.09, 1.58, 7.20, repro,
2008-02-12,-0.67, 1.92, -8.04, 2.08, 1.56, 7.13, repro,
2008-02-13,-1.62, 2.42, -6.08, 2.07, 1.55, 7.13, repro,
2008-02-14,-2.70, 2.15, -3.29, 2.05, 1.55, 7.02, repro,
2008-02-15,-0.93, 0.69, -9.69, 2.09, 1.60, 7.23, repro,
2008-02-16,-1.40, 1.06, -10.04, 2.06, 1.55, 7.05, repro,
2008-02-17,-2.65, 1.39, -4.33, 2.09, 1.58, 7.20, repro,
2008-02-18,-1.95, 1.91, -2.54, 2.06, 1.55, 7.05, repro,
2008-02-19,-2.07, 0.80, 1.69, 2.07, 1.57, 7.15, repro,
2008-02-20,-2.38, 0.69, -6.35, 2.09, 1.61, 7.21, repro,
2008-02-21,-0.60, 1.24, -5.76, 2.08, 1.57, 7.16, repro,
2008-02-22,-2.54, 0.91, 2.98, 2.07, 1.55, 7.05, repro,
2008-02-23,-3.46, 1.25, 2.64, 2.11, 1.59, 7.27, repro,
2008-02-24,-2.78, 2.09, 8.85, 2.07, 1.57, 7.15, repro,
2008-02-25,-1.77, 1.69, -5.49, 2.09, 1.56, 7.15, repro,
2008-02-26,-1.23, 0.97, -14.89, 2.12, 1.60, 7.30, repro,
2008-02-27,-2.53, 1.67, -14.58, 2.11, 1.59, 7.22, repro,
2008-02-28,-1.94, 0.56, -4.15, 2.09, 1.58, 7.21, repro,
2008-02-29,-2.35, 1.05, -7.73, 2.06, 1.56, 7.09, repro,
2008-03-01,-1.82, 2.15, -11.54, 2.07, 1.57, 7.19, repro,
2008-03-02,-3.98, 2.47, -12.30, 2.13, 1.62, 7.36, repro,
2008-03-03,-3.35, 2.22, -7.59, 2.08, 1.56, 7.14, repro,
2008-03-04,-1.53, 1.91, -13.36, 2.06, 1.55, 7.03, repro,
2008-03-05,-2.77, 1.83, -7.62, 2.18, 1.69, 7.67, repro,
2008-03-06,-2.60, 0.99, -4.16, 2.07, 1.56, 7.11, repro,
2008-03-07,-3.23, 1.26, -9.51, 2.10, 1.57, 7.21, repro,
2008-03-08,-4.84, 1.50, -8.08, 2.11, 1.60, 7.37, repro,
2008-03-09,-0.96, 1.08, -7.15, 2.10, 1.60, 7.36, repro,
2008-03-10,-2.90, -0.04, -6.42, 2.05, 1.54, 7.03, repro,
2008-03-11,-2.96, 0.89, -9.46, 2.06, 1.55, 7.05, repro,
2008-03-12,-0.88, -0.44, -7.80, 2.10, 1.60, 7.31, repro,
2008-03-13,-3.76, -0.60, 3.31, 2.10, 1.61, 7.36, repro,
2008-03-14,-1.92, 1.28, -17.01, 2.08, 1.57, 7.17, repro,
2008-03-15,-2.85, 0.39, -10.44, 2.10, 1.59, 7.31, repro,
2008-03-16,-1.88, 0.25, -7.21, 2.13, 1.64, 7.45, repro,
2008-03-17,-1.54, 1.11, -11.05, 2.20, 1.72, 7.87, repro,
2008-03-18,-0.25, 2.52, -8.66, 2.14, 1.63, 7.48, repro,
2008-03-19,-2.73, 1.61, -6.47, 2.14, 1.61, 7.42, repro,
2008-03-20,-1.41, 0.94, -8.66, 2.10, 1.58, 7.23, repro,
2008-03-21,-2.60, -0.37, -10.61, 2.10, 1.58, 7.23, repro,
2008-03-22,-2.14, 0.72, -14.95, 2.12, 1.59, 7.33, repro,
2008-03-23,-1.62, -0.11, -13.56, 2.12, 1.59, 7.35, repro,
2008-03-24,-3.36, 0.69, -8.44, 2.13, 1.61, 7.42, repro,
2008-03-25,-3.05, 1.80, -7.91, 2.13, 1.62, 7.37, repro,
2008-03-26,-3.37, -0.07, -9.98, 2.12, 1.61, 7.32, repro,
2008-03-27,-1.77, 1.66, -13.62, 2.12, 1.62, 7.33, repro,
2008-03-28,-3.53, 0.79, -6.68, 2.14, 1.62, 7.37, repro,
2008-03-29,-0.64, 1.44, -0.24, 2.12, 1.57, 7.31, repro,
2008-03-30,-1.61, 0.73, -2.03, 2.09, 1.56, 7.22, repro,
2008-03-31,-1.50, 1.68, -8.99, 2.08, 1.55, 7.12, repro,
2008-04-01,-2.01, 1.07, -14.37, 2.09, 1.55, 7.15, repro,
2008-04-02,-1.58, 0.68, -10.86, 2.15, 1.58, 7.34, repro,
2008-04-03,-2.12, -0.25, -7.98, 2.09, 1.55, 7.20, repro,
2008-04-04,-2.53, 0.71, -8.84, 2.10, 1.56, 7.26, repro,
2008-04-05,-1.74, 1.01, -4.19, 2.07, 1.55, 7.13, repro,
2008-04-06,-2.02, 0.91, -8.96, 2.10, 1.56, 7.19, repro,
2008-04-07,-1.52, 0.16, -8.58, 2.10, 1.57, 7.26, repro,
2008-04-08,-1.56, -0.39, -5.78, 2.11, 1.56, 7.28, repro,
2008-04-09,-1.65, 0.79, -2.57, 2.11, 1.57, 7.30, repro,
2008-04-10,-1.50, 1.56, -5.43, 2.06, 1.55, 7.09, repro,
2008-04-11,-1.69, 0.07, -9.65, 2.08, 1.56, 7.19, repro,
2008-04-12,0.35, 0.77, -15.54, 2.10, 1.56, 7.20, repro,
2008-04-13,-0.35, 0.63, -10.61, 2.12, 1.56, 7.30, repro,
2008-04-14,-1.14, -1.18, -8.62, 2.12, 1.58, 7.36, repro,
2008-04-15,-2.42, -0.42, 5.30, 2.12, 1.60, 7.29, repro,
2008-04-16,-3.06, 0.69, -2.19, 2.12, 1.60, 7.28, repro,
2008-04-17,-1.55, 0.33, -10.17, 2.11, 1.56, 7.24, repro,
2008-04-18,-0.18, 0.63, -11.60, 2.11, 1.56, 7.26, repro,
2008-04-19,-0.97, -0.85, -5.59, 2.13, 1.56, 7.30, repro,
2008-04-20,-1.43, 2.45, -2.23, 2.10, 1.55, 7.22, repro,
2008-04-21,-2.37, 1.11, -0.39, 2.08, 1.55, 7.19, repro,
2008-04-22,-2.13, 1.62, -9.15, 2.09, 1.55, 7.17, repro,
2008-04-23,-2.46, -0.73, -5.52, 2.18, 1.63, 7.51, repro,
2008-04-24,-0.75, 1.42, -10.12, 2.13, 1.58, 7.34, repro,
2008-04-25,-1.59, 0.62, -11.52, 2.13, 1.58, 7.37, repro,
2008-04-26,-1.54, 0.28, -13.81, 2.21, 1.65, 7.58, repro,
2008-04-27,-2.26, 1.44, -9.98, 2.20, 1.59, 7.46, repro,
2008-04-28,-4.02, 1.88, -12.80, 2.20, 1.60, 7.47, repro,
2008-04-29,-1.93, 1.20, -2.81, 2.25, 1.60, 7.52, repro,
2008-04-30,-0.68, 1.27, -2.19, 2.17, 1.60, 7.45, repro,
2008-05-01,-0.91, 0.68, -0.54, 2.23, 1.65, 7.76, repro,
2008-05-02,-1.33, 0.46, -2.50, 2.11, 1.57, 7.33, repro,
2008-05-03,-2.59, -1.06, -7.76, 2.16, 1.60, 7.44, repro,
2008-05-04,-1.68, -0.22, -3.30, 2.11, 1.56, 7.24, repro,
2008-05-05,-3.60, -0.73, -6.33, 2.16, 1.60, 7.35, repro,
2008-05-06,0.10, -0.30, -6.22, 2.18, 1.61, 7.53, repro,
2008-05-07,-1.52, 0.39, -1.91, 2.12, 1.56, 7.33, repro,
2008-05-08,-0.69, 0.15, -4.94, 2.20, 1.62, 7.71, repro,
2008-05-09,-1.40, 0.40, -6.53, 2.17, 1.60, 7.48, repro,
2008-05-10,-3.77, -0.00, -4.81, 2.16, 1.60, 7.40, repro,
2008-05-11,-2.39, 0.32, -6.30, 2.15, 1.58, 7.40, repro,
2008-05-12,-1.79, -1.90, 5.00, 2.20, 1.64, 7.66, repro,
2008-05-13,0.03, 0.32, 0.07, 2.14, 1.57, 7.39, repro,
2008-05-14,-1.49, 1.85, -15.33, 2.14, 1.56, 7.37, repro,
2008-05-15,-2.45, -2.78, -3.93, 2.14, 1.55, 7.29, repro,
2008-05-16,0.28, -0.37, -12.24, 2.11, 1.55, 7.24, repro,
2008-05-17,-3.27, 0.35, -9.80, 2.14, 1.58, 7.40, repro,
2008-05-18,-2.03, -0.68, -6.35, 2.19, 1.60, 7.56, repro,
2008-05-19,-1.28, 2.15, -3.05, 2.20, 1.61, 7.58, repro,
2008-05-20,-2.42, 2.05, -12.28, 2.13, 1.57, 7.38, repro,
2008-05-21,-2.93, 0.03, 1.68, 2.09, 1.55, 7.24, repro,
2008-05-22,-0.58, -0.20, 3.71, 2.12, 1.58, 7.36, repro,
2008-05-23,0.30, 0.47, 4.21, 2.14, 1.59, 7.50, repro,
2008-05-24,-1.11, 0.14, -3.76, 2.13, 1.57, 7.39, repro,
2008-05-25,-1.45, 0.92, -0.18, 2.13, 1.56, 7.33, repro,
2008-05-26,-2.52, 0.60, 2.40, 2.13, 1.60, 7.44, repro,
2008-05-27,-0.70, 0.12, -2.56, 2.09, 1.56, 7.25, repro,
2008-05-28,0.53, 0.29, -7.34, 2.10, 1.56, 7.31, repro,
2008-05-29,0.95, 0.90, -1.88, 2.17, 1.60, 7.50, repro,
2008-05-30,0.21, 0.17, -7.53, 2.13, 1.56, 7.36, repro,
2008-05-31,1.20, 0.89, -2.72, 2.14, 1.57, 7.39, repro,
2008-06-01,1.02, 1.04, 2.18, 2.11, 1.57, 7.34, repro,
2008-06-02,-0.64, 0.87, -2.71, 2.16, 1.68, 7.63, repro,
2008-06-03,-0.35, 2.24, -0.28, 2.18, 1.63, 7.62, repro,
2008-06-04,-0.04, 1.57, -2.26, 2.13, 1.57, 7.33, repro,
2008-06-05,-1.44, 0.55, 0.19, 2.14, 1.56, 7.39, repro,
2008-06-06,-1.74, 0.37, 0.67, 2.17, 1.59, 7.42, repro,
2008-06-07,-0.49, 0.54, 0.18, 2.17, 1.63, 7.52, repro,
2008-06-08,-0.58, 0.06, -3.38, 2.18, 1.62, 7.58, repro,
2008-06-09,0.73, -0.76, -1.89, 2.17, 1.59, 7.46, repro,
2008-06-10,3.68, 1.56, -3.44, 2.15, 1.56, 7.38, repro,
2008-06-11,-1.45, 2.14, -1.25, 2.14, 1.56, 7.35, repro,
2008-06-12,-3.65, 0.91, 5.95, 2.12, 1.58, 7.36, repro,
2008-06-13,0.69, -0.98, -7.18, 2.11, 1.56, 7.32, repro,
2008-06-14,2.31, 1.72, -8.48, 2.19, 1.60, 7.52, repro,
2008-06-15,1.06, 0.12, 3.72, 2.24, 1.66, 7.73, repro,
2008-06-16,-0.83, 0.79, 9.18, 2.14, 1.56, 7.38, repro,
2008-06-17,-0.06, 1.41, -4.23, 2.13, 1.56, 7.34, repro,
2008-06-18,-0.11, 2.13, -4.97, 2.10, 1.56, 7.29, repro,
2008-06-19,0.51, 2.07, -3.87, 2.15, 1.62, 7.55, repro,
2008-06-20,1.28, 0.63, -6.19, 2.16, 1.60, 7.49, repro,
2008-06-21,0.34, 2.12, -8.35, 2.22, 1.60, 7.62, repro,
2008-06-22,-0.02, 2.59, -17.98, 2.14, 1.56, 7.38, repro,
2008-06-23,-1.99, 2.12, -0.88, 2.12, 1.56, 7.34, repro,
2008-06-24,-0.95, 1.68, 0.62, 2.13, 1.55, 7.27, repro,
2008-06-25,-0.04, 1.67, -8.67, 2.14, 1.55, 7.30, repro,
2008-06-26,-0.36, 1.07, 7.55, 2.14, 1.58, 7.38, repro,
2008-06-27,-1.57, 0.93, -3.51, 2.12, 1.54, 7.20, repro,
2008-06-28,-1.44, -0.85, -6.90, 2.15, 1.56, 7.39, repro,
2008-06-29,-1.87, 2.60, 2.20, 2.23, 1.68, 7.81, repro,
2008-06-30,-0.43, 0.70, -6.54, 2.13, 1.55, 7.27, repro,
2008-07-01,-0.62, 0.36, 1.12, 2.16, 1.59, 7.45, repro,
2008-07-02,1.18, -0.54, -3.07, 2.11, 1.54, 7.21, repro,